This demonstration page uses our WeatherBlox Daily Observations layout. Learn more.

Left ArrowRight Arrow

Hourly Observations for January 27, 2015

Temp ( °F °C ) Dew Point ( °F °C ) Humidity (%) Winds ( mph kmh ) Pressure ( in mb ) Visibility ( mi km ) Precip ( " mm )
12:51 am 00:51 Cloudy 56 13.3 35 1.7 46 46 E 12 19 30.18 1022 10 16 N/A
1:51 am 01:51 Cloudy 54 12.2 38 3.3 55 55 E 12 19 30.18 1022 10 16 N/A
2:51 am 02:51 Cloudy 55 12.8 35 1.7 47 47 E 9 15 30.18 1022 10 16 N/A
3:51 am 03:51 Clear 50 10 36 2.2 59 59 E 9 15 30.18 1022 10 16 N/A
4:51 am 04:51 Mostly Cloudy 48 8.9 37 2.8 66 66 ESE 7 11 30.19 1022 10 16 N/A
5:51 am 05:51 Mostly Cloudy 49 9.4 37 2.8 64 64 S 5 7 30.20 1023 10 16 N/A
6:51 am 06:51 Cloudy 49 9.4 36 2.2 61 61 SE 8 13 30.22 1023 10 16 N/A
7:51 am 07:51 Mostly Sunny 50 10 37 2.8 61 61 ESE 13 20 30.23 1024 10 16 N/A
8:51 am 08:51 Sunny 54 12.2 37 2.8 53 53 SE 10 17 30.25 1025 10 16 N/A
9:51 am 09:51 Sunny 59 15 36 2.2 42 42 SE 10 17 30.23 1024 10 16 N/A
10:51 am 10:51 Sunny 63 17.2 36 2.2 37 37 S 9 15 30.21 1023 10 16 N/A
11:51 am 11:51 Sunny 65 18.3 33 0.6 31 31 S 7 11 30.19 1022 10 16 N/A
12:51 pm 12:51 Sunny 67 19.4 32 undefined 27 27 S 6 9 30.14 1021 10 16 N/A
1:51 pm 13:51 Sunny 69 20.6 33 0.6 26 26 SW 5 7 30.11 1020 10 16 N/A
2:51 pm 14:51 Sunny 70 21.1 33 0.6 26 26 VRB 3 6 30.08 1019 10 16 N/A
3:51 pm 15:51 Sunny 70 21.1 34 1.1 27 27 N N/A 30.08 1019 10 16 N/A
4:51 pm 16:51 Sunny 70 21.1 35 1.7 28 28 N N/A 30.08 1019 10 16 N/A
5:51 pm 17:51 Clear 65 18.3 35 1.7 33 33 W 7 11 30.09 1019 10 16 N/A
6:51 pm 18:51 Clear 60 15.6 35 1.7 39 39 N 6 9 30.09 1019 10 16 N/A
7:51 pm 19:51 Clear 59 15 36 2.2 42 42 N 9 15 30.10 1019 10 16 N/A
8:51 pm 20:51 Clear 56 13.3 36 2.2 47 47 W 3 6 30.10 1019 10 16 N/A
9:51 pm 21:51 Clear 52 11.1 35 1.7 53 53 N 6 9 30.10 1019 10 16 N/A
10:51 pm 22:51 Clear 51 10.6 35 1.7 54 54 NNW 3 6 30.12 1020 10 16 N/A
11:51 pm 23:51 Clear 51 10.6 36 2.2 56 56 N 3 6 30.11 1020 10 16 N/A

Powered by AerisWeather